Epoch = 2005 Apr. 20.0 TT T = 2005 Apr. 11.35661 TT Peri. = 58.37421 e = 0.4216303 Node = 260.62685 2000.0 q = 2.2113761 AU Incl. = 8.33731 a = 3.8234650 AU n = 0.13183126 P = 7.48 years
m1 = 15.0 + 5 logΔ + 10.0 log r